Time,TemperatureF,DewpointF,PressureIn,WindDirection,WindDirectionDegrees,WindSpeedMPH,WindSpeedGustMPH,Humidity,HourlyPrecipIn,Conditions,Clouds,dailyrainin,SoftwareType,DateUTC
2013-07-09 00:00:00,67.9,67.0,30.30,South,186,3.0,4.0,97,0.00,,,0.00,Wunderground v.1.15,2013-07-09 04:00:00,
2013-07-09 00:05:00,68.0,67.1,30.29,South,186,3.0,4.0,97,0.00,,,0.00,Wunderground v.1.15,2013-07-09 04:05:00,
2013-07-09 00:10:00,68.3,67.4,30.29,South,186,3.0,3.0,97,0.00,,,0.00,Wunderground v.1.15,2013-07-09 04:10:00,
2013-07-09 00:15:00,68.3,67.1,30.29,South,186,2.0,3.0,96,0.00,,,0.00,Wunderground v.1.15,2013-07-09 04:15:00,
2013-07-09 00:20:00,68.1,66.9,30.29,South,186,2.0,4.0,96,0.00,,,0.00,Wunderground v.1.15,2013-07-09 04:20:00,
2013-07-09 00:30:00,68.0,66.8,30.29,South,186,3.0,3.0,96,0.00,,,0.00,Wunderground v.1.15,2013-07-09 04:30:00,
2013-07-09 00:35:00,68.2,67.3,30.29,South,185,3.0,3.0,97,0.00,,,0.00,Wunderground v.1.15,2013-07-09 04:35:00,
2013-07-09 00:40:00,68.2,67.0,30.29,South,185,2.0,2.0,96,0.00,,,0.00,Wunderground v.1.15,2013-07-09 04:40:00,
2013-07-09 00:45:00,68.3,67.4,30.29,South,185,2.0,2.0,97,0.00,,,0.00,Wunderground v.1.15,2013-07-09 04:45:00,
2013-07-09 00:50:00,68.5,67.6,30.29,South,185,2.0,2.0,97,0.00,,,0.00,Wunderground v.1.15,2013-07-09 04:50:00,
2013-07-09 00:55:00,68.3,67.1,30.29,South,185,2.0,3.0,96,0.00,,,0.00,Wunderground v.1.15,2013-07-09 04:55:00,
2013-07-09 01:05:00,68.1,66.9,30.28,South,185,3.0,6.0,96,0.00,,,0.00,Wunderground v.1.15,2013-07-09 05:05:00,
2013-07-09 01:10:00,68.1,67.2,30.28,South,185,3.0,6.0,97,0.00,,,0.00,Wunderground v.1.15,2013-07-09 05:10:00,
2013-07-09 01:15:00,68.3,67.4,30.28,South,185,2.0,6.0,97,0.00,,,0.00,Wunderground v.1.15,2013-07-09 05:15:00,
2013-07-09 01:20:00,68.4,67.5,30.28,South,180,2.0,6.0,97,0.00,,,0.00,Wunderground v.1.15,2013-07-09 05:20:00,
2013-07-09 01:25:00,68.4,67.5,30.28,South,180,3.0,6.0,97,0.00,,,0.00,Wunderground v.1.15,2013-07-09 05:25:00,
2013-07-09 01:35:00,68.4,67.5,30.28,South,180,3.0,6.0,97,0.00,,,0.00,Wunderground v.1.15,2013-07-09 05:35:00,
2013-07-09 01:40:00,68.3,67.4,30.27,South,180,3.0,6.0,97,0.00,,,0.00,Wunderground v.1.15,2013-07-09 05:40:00,
2013-07-09 01:45:00,68.3,67.4,30.27,SSW,210,3.0,6.0,97,0.00,,,0.00,Wunderground v.1.15,2013-07-09 05:45:00,
2013-07-09 01:50:00,68.4,67.5,30.27,SSW,209,3.0,6.0,97,0.00,,,0.00,Wunderground v.1.15,2013-07-09 05:50:00,
2013-07-09 01:55:00,68.4,67.5,30.27,SSW,209,2.0,6.0,97,0.00,,,0.00,Wunderground v.1.15,2013-07-09 05:55:00,
2013-07-09 02:00:00,68.4,67.5,30.27,SSW,209,2.0,6.0,97,0.00,,,0.00,Wunderground v.1.15,2013-07-09 06:00:00,
2013-07-09 02:10:00,68.4,67.5,30.27,SSW,209,2.0,6.0,97,0.00,,,0.00,Wunderground v.1.15,2013-07-09 06:10:00,
2013-07-09 02:15:00,68.3,67.4,30.26,SSW,209,2.0,6.0,97,0.00,,,0.00,Wunderground v.1.15,2013-07-09 06:15:00,
2013-07-09 02:20:00,68.3,67.4,30.27,SSW,209,2.0,2.0,97,0.00,,,0.00,Wunderground v.1.15,2013-07-09 06:20:00,
2013-07-09 02:25:00,68.1,67.2,30.27,SSW,209,0.0,6.0,97,0.00,,,0.00,Wunderground v.1.15,2013-07-09 06:25:00,
2013-07-09 02:30:00,68.1,67.2,30.27,SSW,209,0.0,6.0,97,0.00,,,0.00,Wunderground v.1.15,2013-07-09 06:30:00,
2013-07-09 02:40:00,68.0,67.1,30.27,SSW,209,1.0,6.0,97,0.00,,,0.00,Wunderground v.1.15,2013-07-09 06:40:00,
2013-07-09 02:45:00,68.0,67.1,30.27,SSW,209,1.0,6.0,97,0.00,,,0.00,Wunderground v.1.15,2013-07-09 06:45:00,
2013-07-09 02:50:00,68.0,67.1,30.26,SSW,209,1.0,1.0,97,0.00,,,0.00,Wunderground v.1.15,2013-07-09 06:50:00,
2013-07-09 02:55:00,68.0,67.1,30.27,SSW,209,1.0,2.0,97,0.00,,,0.00,Wunderground v.1.15,2013-07-09 06:55:00,
2013-07-09 03:00:00,68.1,67.2,30.27,SSW,209,2.0,6.0,97,0.00,,,0.00,Wunderground v.1.15,2013-07-09 07:00:00,
2013-07-09 03:05:00,68.0,67.1,30.27,SSW,209,2.0,6.0,97,0.00,,,0.00,Wunderground v.1.15,2013-07-09 07:05:00,
2013-07-09 03:15:00,68.1,67.2,30.27,SSW,209,3.0,6.0,97,0.00,,,0.00,Wunderground v.1.15,2013-07-09 07:15:00,
2013-07-09 03:20:00,68.1,67.2,30.27,SSW,209,3.0,3.0,97,0.00,,,0.00,Wunderground v.1.15,2013-07-09 07:20:00,
2013-07-09 03:25:00,68.1,67.2,30.27,SSW,209,2.0,6.0,97,0.00,,,0.00,Wunderground v.1.15,2013-07-09 07:25:00,
2013-07-09 03:30:00,68.1,67.2,30.27,SSW,209,2.0,6.0,97,0.00,,,0.00,Wunderground v.1.15,2013-07-09 07:30:00,
2013-07-09 03:35:00,68.1,67.2,30.27,SSW,209,3.0,6.0,97,0.00,,,0.00,Wunderground v.1.15,2013-07-09 07:35:00,
2013-07-09 03:45:00,68.0,67.1,30.27,SSW,209,2.0,6.0,97,0.00,,,0.00,Wunderground v.1.15,2013-07-09 07:45:00,
2013-07-09 03:55:00,67.9,67.0,30.27,SSW,209,2.0,6.0,97,0.00,,,0.00,Wunderground v.1.15,2013-07-09 07:55:00,
2013-07-09 04:00:00,67.9,67.0,30.27,SSW,209,2.0,6.0,97,0.00,,,0.00,Wunderground v.1.15,2013-07-09 08:00:00,
2013-07-09 04:05:00,67.9,67.0,30.27,SSW,209,2.0,6.0,97,0.00,,,0.00,Wunderground v.1.15,2013-07-09 08:05:00,
2013-07-09 04:10:00,67.9,67.0,30.27,SSW,209,2.0,6.0,97,0.00,,,0.00,Wunderground v.1.15,2013-07-09 08:10:00,
2013-07-09 04:15:00,67.9,67.0,30.27,SSW,209,2.0,6.0,97,0.00,,,0.00,Wunderground v.1.15,2013-07-09 08:15:00,
2013-07-09 04:25:00,67.8,66.9,30.27,SSW,209,0.0,6.0,97,0.00,,,0.00,Wunderground v.1.15,2013-07-09 08:25:00,
2013-07-09 04:30:00,67.8,66.9,30.27,SSW,209,0.0,6.0,97,0.00,,,0.00,Wunderground v.1.15,2013-07-09 08:30:00,
2013-07-09 04:35:00,67.8,67.2,30.27,SSW,209,0.0,6.0,98,0.00,,,0.00,Wunderground v.1.15,2013-07-09 08:35:00,
2013-07-09 04:40:00,67.8,67.2,30.27,SSW,209,0.0,6.0,98,0.00,,,0.00,Wunderground v.1.15,2013-07-09 08:40:00,
2013-07-09 04:45:00,67.8,67.2,30.27,SSW,209,0.0,6.0,98,0.00,,,0.00,Wunderground v.1.15,2013-07-09 08:45:00,
2013-07-09 04:50:00,67.7,66.8,30.28,SSW,209,0.0,6.0,97,0.00,,,0.00,Wunderground v.1.15,2013-07-09 08:50:00,
2013-07-09 04:55:00,67.7,66.8,30.27,SSW,209,0.0,6.0,97,0.00,,,0.00,Wunderground v.1.15,2013-07-09 08:55:00,
2013-07-09 05:00:00,67.7,66.8,30.28,SSW,209,0.0,6.0,97,0.00,,,0.00,Wunderground v.1.15,2013-07-09 09:00:00,
2013-07-09 05:05:00,67.7,66.8,30.28,SSW,209,0.0,6.0,97,0.00,,,0.00,Wunderground v.1.15,2013-07-09 09:05:00,
2013-07-09 05:10:00,67.7,66.8,30.28,SSW,209,0.0,6.0,97,0.00,,,0.00,Wunderground v.1.15,2013-07-09 09:10:00,
2013-07-09 05:15:00,67.7,66.8,30.28,SSW,209,0.0,6.0,97,0.00,,,0.00,Wunderground v.1.15,2013-07-09 09:15:00,
2013-07-09 05:25:00,67.7,66.8,30.28,SSW,209,0.0,6.0,97,0.00,,,0.00,Wunderground v.1.15,2013-07-09 09:25:00,
2013-07-09 05:30:00,67.8,67.2,30.28,SSW,209,0.0,6.0,98,0.00,,,0.00,Wunderground v.1.15,2013-07-09 09:30:00,
2013-07-09 05:35:00,67.8,67.2,30.28,SSW,209,0.0,6.0,98,0.00,,,0.00,Wunderground v.1.15,2013-07-09 09:35:00,
2013-07-09 05:40:00,67.8,67.2,30.28,SSW,209,0.0,6.0,98,0.00,,,0.00,Wunderground v.1.15,2013-07-09 09:40:00,
2013-07-09 05:45:00,67.9,67.3,30.28,SSW,209,0.0,6.0,98,0.00,,,0.00,Wunderground v.1.15,2013-07-09 09:45:00,
2013-07-09 05:50:00,67.9,67.3,30.28,SSW,209,0.0,6.0,98,0.00,,,0.00,Wunderground v.1.15,2013-07-09 09:50:00,
2013-07-09 06:00:00,67.9,67.3,30.28,SSW,209,0.0,3.0,98,0.00,,,0.00,Wunderground v.1.15,2013-07-09 10:00:00,
2013-07-09 06:10:00,67.9,67.3,30.28,SSW,209,1.0,2.0,98,0.00,,,0.00,Wunderground v.1.15,2013-07-09 10:10:00,
2013-07-09 06:15:00,67.9,67.3,30.28,SSW,209,1.0,2.0,98,0.00,,,0.00,Wunderground v.1.15,2013-07-09 10:15:00,
2013-07-09 06:20:00,67.9,67.3,30.28,SSW,209,2.0,3.0,98,0.00,,,0.00,Wunderground v.1.15,2013-07-09 10:20:00,
2013-07-09 06:30:00,68.0,67.4,30.28,SSW,209,2.0,2.0,98,0.00,,,0.00,Wunderground v.1.15,2013-07-09 10:30:00,
2013-07-09 06:35:00,68.0,67.4,30.28,SSW,209,2.0,2.0,98,0.00,,,0.00,Wunderground v.1.15,2013-07-09 10:35:00,
2013-07-09 06:40:00,68.1,67.5,30.28,SSW,209,2.0,4.0,98,0.00,,,0.00,Wunderground v.1.15,2013-07-09 10:40:00,
2013-07-09 06:45:00,68.2,67.6,30.28,SSW,209,3.0,4.0,98,0.00,,,0.00,Wunderground v.1.15,2013-07-09 10:45:00,
2013-07-09 06:50:00,68.2,67.6,30.28,SSW,209,3.0,3.0,98,0.00,,,0.00,Wunderground v.1.15,2013-07-09 10:50:00,
2013-07-09 06:55:00,68.3,67.7,30.28,SSW,209,3.0,3.0,98,0.00,,,0.00,Wunderground v.1.15,2013-07-09 10:55:00,
2013-07-09 07:05:00,68.5,67.9,30.28,SSW,209,3.0,4.0,98,0.00,,,0.01,Wunderground v.1.15,2013-07-09 11:05:00,
2013-07-09 07:10:00,68.6,68.0,30.29,SSW,209,3.0,3.0,98,0.00,,,0.01,Wunderground v.1.15,2013-07-09 11:10:00,
2013-07-09 07:15:00,68.8,67.9,30.28,SSW,209,2.0,3.0,97,0.00,,,0.01,Wunderground v.1.15,2013-07-09 11:15:00,
2013-07-09 07:20:00,68.8,67.9,30.28,SSW,209,3.0,4.0,97,0.00,,,0.01,Wunderground v.1.15,2013-07-09 11:20:00,
2013-07-09 07:25:00,68.9,68.0,30.28,SSW,209,3.0,4.0,97,0.00,,,0.01,Wunderground v.1.15,2013-07-09 11:25:00,
2013-07-09 07:35:00,69.0,68.1,30.28,SSW,209,2.0,3.0,97,0.00,,,0.01,Wunderground v.1.15,2013-07-09 11:35:00,
2013-07-09 07:40:00,69.2,68.3,30.28,SSW,209,1.0,1.0,97,0.00,,,0.01,Wunderground v.1.15,2013-07-09 11:40:00,
2013-07-09 07:45:00,69.3,68.4,30.28,SSW,209,0.0,2.0,97,0.00,,,0.01,Wunderground v.1.15,2013-07-09 11:45:00,
2013-07-09 07:50:00,69.4,68.5,30.28,SSW,209,1.0,2.0,97,0.00,,,0.01,Wunderground v.1.15,2013-07-09 11:50:00,
2013-07-09 07:55:00,69.5,68.6,30.28,SSW,209,1.0,2.0,97,0.00,,,0.01,Wunderground v.1.15,2013-07-09 11:55:00,
2013-07-09 08:00:00,69.5,68.6,30.28,SSW,209,1.0,1.0,97,0.00,,,0.01,Wunderground v.1.15,2013-07-09 12:00:00,
2013-07-09 08:10:00,69.7,68.8,30.28,SSW,209,0.0,2.0,97,0.00,,,0.01,Wunderground v.1.15,2013-07-09 12:10:00,
2013-07-09 08:15:00,69.8,68.9,30.28,SSW,209,1.0,2.0,97,0.00,,,0.01,Wunderground v.1.15,2013-07-09 12:15:00,
2013-07-09 08:20:00,69.9,69.0,30.28,SSW,209,1.0,2.0,97,0.00,,,0.01,Wunderground v.1.15,2013-07-09 12:20:00,
2013-07-09 08:25:00,69.9,68.7,30.28,SSW,209,2.0,2.0,96,0.00,,,0.01,Wunderground v.1.15,2013-07-09 12:25:00,
2013-07-09 08:30:00,70.2,69.0,30.28,SSW,209,1.0,2.0,96,0.00,,,0.01,Wunderground v.1.15,2013-07-09 12:30:00,
2013-07-09 08:35:00,70.3,69.1,30.28,SSW,209,0.0,2.0,96,0.00,,,0.01,Wunderground v.1.15,2013-07-09 12:35:00,
2013-07-09 08:40:00,70.6,69.4,30.28,SSW,209,0.0,2.0,96,0.00,,,0.01,Wunderground v.1.15,2013-07-09 12:40:00,
2013-07-09 08:45:00,70.8,69.6,30.28,SSW,209,0.0,2.0,96,0.00,,,0.01,Wunderground v.1.15,2013-07-09 12:45:00,
2013-07-09 08:50:00,71.0,69.8,30.28,SSW,209,0.0,2.0,96,0.00,,,0.01,Wunderground v.1.15,2013-07-09 12:50:00,
2013-07-09 08:55:00,71.2,70.0,30.29,SSW,209,0.0,2.0,96,0.00,,,0.01,Wunderground v.1.15,2013-07-09 12:55:00,
2013-07-09 09:00:00,71.3,69.8,30.28,SSW,209,1.0,2.0,95,0.00,,,0.01,Wunderground v.1.15,2013-07-09 13:00:00,
2013-07-09 09:10:00,71.6,70.1,30.29,SSW,209,1.0,1.0,95,0.00,,,0.01,Wunderground v.1.15,2013-07-09 13:10:00,
2013-07-09 09:15:00,71.7,70.2,30.29,SSW,209,1.0,2.0,95,0.00,,,0.01,Wunderground v.1.15,2013-07-09 13:15:00,
2013-07-09 09:20:00,71.8,70.0,30.29,SSW,209,2.0,3.0,94,0.00,,,0.01,Wunderground v.1.15,2013-07-09 13:20:00,
2013-07-09 09:25:00,71.9,70.1,30.29,SSW,209,1.0,3.0,94,0.00,,,0.01,Wunderground v.1.15,2013-07-09 13:25:00,
2013-07-09 09:30:00,72.1,70.0,30.29,SSW,209,2.0,2.0,93,0.00,,,0.01,Wunderground v.1.15,2013-07-09 13:30:00,
2013-07-09 09:35:00,72.0,69.5,30.29,SSW,209,3.0,3.0,92,0.00,,,0.01,Wunderground v.1.15,2013-07-09 13:35:00,
2013-07-09 09:45:00,72.8,70.7,30.28,SSW,209,2.0,3.0,93,0.00,,,0.01,Wunderground v.1.15,2013-07-09 13:45:00,
2013-07-09 09:50:00,73.8,71.3,30.28,SSW,209,2.0,3.0,92,0.00,,,0.01,Wunderground v.1.15,2013-07-09 13:50:00,
2013-07-09 09:55:00,74.3,71.2,30.28,SSE,165,3.0,5.0,90,0.00,,,0.01,Wunderground v.1.15,2013-07-09 13:55:00,
2013-07-09 10:00:00,74.5,71.0,30.28,SSE,165,3.0,3.0,89,0.00,,,0.01,Wunderground v.1.15,2013-07-09 14:00:00,
2013-07-09 10:05:00,74.8,71.3,30.28,SSE,165,1.0,3.0,89,0.00,,,0.01,Wunderground v.1.15,2013-07-09 14:05:00,
2013-07-09 10:15:00,75.1,71.6,30.28,SSE,165,0.0,2.0,89,0.00,,,0.01,Wunderground v.1.15,2013-07-09 14:15:00,
2013-07-09 10:20:00,75.1,71.0,30.28,SSE,165,0.0,2.0,87,0.00,,,0.01,Wunderground v.1.15,2013-07-09 14:20:00,
2013-07-09 10:25:00,75.5,71.7,30.28,SSE,165,1.0,2.0,88,0.00,,,0.01,Wunderground v.1.15,2013-07-09 14:25:00,
2013-07-09 10:30:00,76.0,71.8,30.28,SSE,165,1.0,1.0,87,0.00,,,0.01,Wunderground v.1.15,2013-07-09 14:30:00,
2013-07-09 10:35:00,76.8,72.6,30.28,SSE,165,1.0,2.0,87,0.00,,,0.01,Wunderground v.1.15,2013-07-09 14:35:00,
2013-07-09 10:40:00,77.3,72.4,30.28,SSE,165,1.0,2.0,85,0.00,,,0.01,Wunderground v.1.15,2013-07-09 14:40:00,
2013-07-09 10:50:00,77.8,71.5,30.28,SW,225,2.0,4.0,81,0.00,,,0.01,Wunderground v.1.15,2013-07-09 14:50:00,
2013-07-09 10:55:00,78.3,71.2,30.28,SW,224,2.0,4.0,79,0.00,,,0.01,Wunderground v.1.15,2013-07-09 14:55:00,
2013-07-09 11:00:00,79.1,72.8,30.27,SW,224,1.0,4.0,81,0.00,,,0.01,Wunderground v.1.15,2013-07-09 15:00:00,
2013-07-09 11:05:00,79.9,72.4,30.27,SW,224,1.0,4.0,78,0.00,,,0.01,Wunderground v.1.15,2013-07-09 15:05:00,
2013-07-09 11:10:00,80.4,71.7,30.27,SW,217,1.0,1.0,75,0.00,,,0.01,Wunderground v.1.15,2013-07-09 15:10:00,
2013-07-09 11:20:00,80.0,72.1,30.27,SSE,166,1.0,1.0,77,0.00,,,0.01,Wunderground v.1.15,2013-07-09 15:20:00,
2013-07-09 11:25:00,80.5,71.8,30.27,SSE,166,1.0,2.0,75,0.00,,,0.01,Wunderground v.1.15,2013-07-09 15:25:00,
2013-07-09 11:30:00,80.8,72.1,30.27,South,183,1.0,5.0,75,0.00,,,0.01,Wunderground v.1.15,2013-07-09 15:30:00,
2013-07-09 11:35:00,81.0,71.9,30.27,South,183,1.0,5.0,74,0.00,,,0.01,Wunderground v.1.15,2013-07-09 15:35:00,
2013-07-09 11:40:00,80.9,71.8,30.27,South,183,1.0,2.0,74,0.00,,,0.01,Wunderground v.1.15,2013-07-09 15:40:00,
2013-07-09 11:45:00,80.9,71.8,30.27,South,183,2.0,3.0,74,0.00,,,0.01,Wunderground v.1.15,2013-07-09 15:45:00,
2013-07-09 11:55:00,81.2,71.7,30.27,South,188,2.0,2.0,73,0.00,,,0.01,Wunderground v.1.15,2013-07-09 15:55:00,
2013-07-09 12:00:00,81.2,71.7,30.27,SSW,209,3.0,4.0,73,0.00,,,0.01,Wunderground v.1.15,2013-07-09 16:00:00,
2013-07-09 12:10:00,81.3,71.4,30.26,SSW,195,2.0,4.0,72,0.00,,,0.01,Wunderground v.1.15,2013-07-09 16:10:00,
2013-07-09 12:15:00,80.8,70.9,30.26,SE,145,3.0,4.0,72,0.00,,,0.01,Wunderground v.1.15,2013-07-09 16:15:00,
2013-07-09 12:25:00,81.8,70.2,30.26,SW,221,3.0,6.0,68,0.00,,,0.01,Wunderground v.1.15,2013-07-09 16:25:00,
2013-07-09 12:30:00,82.5,70.0,30.26,SSE,162,5.0,5.0,66,0.00,,,0.01,Wunderground v.1.15,2013-07-09 16:30:00,
2013-07-09 12:35:00,82.0,72.1,30.26,South,186,5.0,5.0,72,0.00,,,0.01,Wunderground v.1.15,2013-07-09 16:35:00,
2013-07-09 12:40:00,82.8,71.2,30.25,SW,218,4.0,4.0,68,0.00,,,0.01,Wunderground v.1.15,2013-07-09 16:40:00,
2013-07-09 12:45:00,83.4,70.8,30.25,SSW,192,3.0,4.0,66,0.00,,,0.01,Wunderground v.1.15,2013-07-09 16:45:00,
2013-07-09 12:50:00,83.5,70.5,30.25,SSW,205,3.0,5.0,65,0.00,,,0.01,Wunderground v.1.15,2013-07-09 16:50:00,
2013-07-09 13:00:00,82.4,70.3,30.25,SSE,167,4.0,6.0,67,0.00,,,0.01,Wunderground v.1.15,2013-07-09 17:00:00,
2013-07-09 13:05:00,81.9,70.7,30.25,SSE,167,3.0,7.0,69,0.00,,,0.01,Wunderground v.1.15,2013-07-09 17:05:00,
2013-07-09 13:10:00,81.9,71.6,30.25,South,175,2.0,7.0,71,0.00,,,0.01,Wunderground v.1.15,2013-07-09 17:10:00,
2013-07-09 13:15:00,81.9,71.2,30.25,South,175,2.0,7.0,70,0.00,,,0.01,Wunderground v.1.15,2013-07-09 17:15:00,
2013-07-09 13:20:00,81.9,72.0,30.25,South,175,2.0,7.0,72,0.00,,,0.01,Wunderground v.1.15,2013-07-09 17:20:00,
2013-07-09 13:30:00,80.9,72.6,30.25,SSW,192,3.0,7.0,76,0.00,,,0.01,Wunderground v.1.15,2013-07-09 17:30:00,
2013-07-09 13:35:00,80.1,73.0,30.25,SW,223,3.0,9.0,79,0.00,,,0.01,Wunderground v.1.15,2013-07-09 17:35:00,
2013-07-09 13:40:00,78.6,73.0,30.25,SSW,209,5.0,5.0,83,0.00,,,0.01,Wunderground v.1.15,2013-07-09 17:40:00,
2013-07-09 13:45:00,77.6,72.7,30.25,SW,218,5.0,7.0,85,0.00,,,0.01,Wunderground v.1.15,2013-07-09 17:45:00,
2013-07-09 13:50:00,77.1,72.6,30.25,SW,218,4.0,4.0,86,0.00,,,0.01,Wunderground v.1.15,2013-07-09 17:50:00,
2013-07-09 13:55:00,77.0,72.1,30.24,SW,218,2.0,7.0,85,0.00,,,0.01,Wunderground v.1.15,2013-07-09 17:55:00,
2013-07-09 14:00:00,77.1,72.2,30.25,SW,218,1.0,7.0,85,0.00,,,0.01,Wunderground v.1.15,2013-07-09 18:00:00,
2013-07-09 14:05:00,77.5,72.6,30.25,SSW,211,1.0,7.0,85,0.00,,,0.01,Wunderground v.1.15,2013-07-09 18:05:00,
2013-07-09 14:10:00,77.8,72.6,30.25,SSW,211,2.0,7.0,84,0.00,,,0.01,Wunderground v.1.15,2013-07-09 18:10:00,
2013-07-09 14:15:00,77.9,73.0,30.25,WSW,245,4.0,7.0,85,0.00,,,0.02,Wunderground v.1.15,2013-07-09 18:15:00,
2013-07-09 14:20:00,75.8,71.0,30.25,SW,219,8.0,11.0,85,1.27,,,0.05,Wunderground v.1.15,2013-07-09 18:20:00,
2013-07-09 14:25:00,73.5,69.7,30.26,WSW,246,10.0,11.0,88,0.85,,,0.15,Wunderground v.1.15,2013-07-09 18:25:00,
2013-07-09 14:35:00,72.4,69.9,30.25,SW,227,3.0,7.0,92,0.26,,,0.21,Wunderground v.1.15,2013-07-09 18:35:00,
2013-07-09 14:40:00,72.2,69.7,30.24,SW,227,1.0,1.0,92,0.11,,,0.21,Wunderground v.1.15,2013-07-09 18:40:00,
2013-07-09 14:45:00,72.3,70.2,30.24,SW,227,0.0,7.0,93,0.06,,,0.21,Wunderground v.1.15,2013-07-09 18:45:00,
2013-07-09 14:50:00,72.3,70.2,30.24,SW,227,0.0,7.0,93,0.04,,,0.21,Wunderground v.1.15,2013-07-09 18:50:00,
2013-07-09 14:55:00,72.6,70.8,30.24,SW,227,0.0,7.0,94,0.00,,,0.21,Wunderground v.1.15,2013-07-09 18:55:00,
2013-07-09 15:05:00,73.1,71.0,30.24,SW,227,1.0,7.0,93,0.00,,,0.21,Wunderground v.1.15,2013-07-09 19:05:00,
2013-07-09 15:10:00,73.2,71.1,30.23,SW,227,1.0,1.0,93,0.00,,,0.21,Wunderground v.1.15,2013-07-09 19:10:00,
2013-07-09 15:15:00,73.6,71.8,30.23,SW,227,0.0,7.0,94,0.00,,,0.21,Wunderground v.1.15,2013-07-09 19:15:00,
2013-07-09 15:20:00,73.9,71.7,30.23,SW,227,0.0,7.0,93,0.00,,,0.21,Wunderground v.1.15,2013-07-09 19:20:00,
2013-07-09 15:25:00,74.4,72.6,30.23,SW,227,0.0,7.0,94,0.00,,,0.21,Wunderground v.1.15,2013-07-09 19:25:00,
2013-07-09 15:30:00,74.7,72.2,30.22,SW,227,0.0,7.0,92,0.00,,,0.21,Wunderground v.1.15,2013-07-09 19:30:00,
2013-07-09 15:40:00,75.2,72.1,30.22,SW,227,0.0,7.0,90,0.00,,,0.21,Wunderground v.1.15,2013-07-09 19:40:00,
2013-07-09 15:45:00,75.7,72.6,30.22,SW,227,0.0,7.0,90,0.00,,,0.21,Wunderground v.1.15,2013-07-09 19:45:00,
2013-07-09 15:50:00,76.5,73.7,30.22,SW,227,0.0,7.0,91,0.00,,,0.21,Wunderground v.1.15,2013-07-09 19:50:00,
2013-07-09 15:55:00,77.3,73.8,30.22,SW,227,1.0,7.0,89,0.00,,,0.21,Wunderground v.1.15,2013-07-09 19:55:00,
2013-07-09 16:00:00,78.0,73.8,30.21,SW,227,1.0,7.0,87,0.00,,,0.21,Wunderground v.1.15,2013-07-09 20:00:00,
2013-07-09 16:10:00,79.2,73.6,30.21,SW,227,2.0,7.0,83,0.00,,,0.21,Wunderground v.1.15,2013-07-09 20:10:00,
2013-07-09 16:15:00,79.4,74.1,30.21,SW,227,2.0,7.0,84,0.00,,,0.21,Wunderground v.1.15,2013-07-09 20:15:00,
2013-07-09 16:20:00,80.0,74.0,30.21,SW,227,1.0,1.0,82,0.00,,,0.21,Wunderground v.1.15,2013-07-09 20:20:00,
2013-07-09 16:25:00,80.6,73.9,30.20,SW,227,1.0,4.0,80,0.00,,,0.21,Wunderground v.1.15,2013-07-09 20:25:00,
2013-07-09 16:30:00,80.0,72.9,30.20,SE,136,2.0,2.0,79,0.00,,,0.21,Wunderground v.1.15,2013-07-09 20:30:00,
2013-07-09 16:35:00,79.8,73.8,30.20,SE,142,3.0,4.0,82,0.00,,,0.21,Wunderground v.1.15,2013-07-09 20:35:00,
2013-07-09 16:45:00,81.3,73.8,30.19,South,177,3.0,4.0,78,0.00,,,0.21,Wunderground v.1.15,2013-07-09 20:45:00,
2013-07-09 16:50:00,81.4,73.1,30.19,SSE,167,3.0,7.0,76,0.00,,,0.21,Wunderground v.1.15,2013-07-09 20:50:00,
2013-07-09 16:55:00,81.4,73.5,30.18,South,188,4.0,7.0,77,0.00,,,0.21,Wunderground v.1.15,2013-07-09 20:55:00,
2013-07-09 17:00:00,82.0,74.1,30.19,South,188,3.0,3.0,77,0.00,,,0.21,Wunderground v.1.15,2013-07-09 21:00:00,
2013-07-09 17:05:00,82.1,73.8,30.19,South,188,3.0,7.0,76,0.00,,,0.21,Wunderground v.1.15,2013-07-09 21:05:00,
2013-07-09 17:15:00,80.1,71.1,30.20,SW,215,4.0,8.0,74,0.00,,,0.21,Wunderground v.1.15,2013-07-09 21:15:00,
2013-07-09 17:20:00,78.9,70.3,30.20,South,175,6.0,9.0,75,0.00,,,0.21,Wunderground v.1.15,2013-07-09 21:20:00,
2013-07-09 17:25:00,77.7,70.3,30.19,SSE,167,6.0,9.0,78,0.00,,,0.21,Wunderground v.1.15,2013-07-09 21:25:00,
2013-07-09 17:30:00,76.6,70.7,30.19,South,188,7.0,7.0,82,0.00,,,0.21,Wunderground v.1.15,2013-07-09 21:30:00,
2013-07-09 17:35:00,76.1,70.9,30.20,South,178,6.0,7.0,84,0.00,,,0.21,Wunderground v.1.15,2013-07-09 21:35:00,
2013-07-09 17:40:00,75.9,71.1,30.20,SSE,155,5.0,5.0,85,0.00,,,0.21,Wunderground v.1.15,2013-07-09 21:40:00,
2013-07-09 17:50:00,75.1,71.0,30.19,South,184,6.0,6.0,87,0.00,,,0.21,Wunderground v.1.15,2013-07-09 21:50:00,
2013-07-09 17:55:00,74.9,71.1,30.18,South,181,5.0,7.0,88,0.00,,,0.21,Wunderground v.1.15,2013-07-09 21:55:00,
2013-07-09 18:00:00,75.1,71.6,30.18,South,184,3.0,3.0,89,0.00,,,0.21,Wunderground v.1.15,2013-07-09 22:00:00,
2013-07-09 18:10:00,76.0,72.2,30.17,SSW,200,2.0,2.0,88,0.00,,,0.21,Wunderground v.1.15,2013-07-09 22:10:00,
2013-07-09 18:20:00,76.5,72.0,30.18,South,190,3.0,3.0,86,0.00,,,0.22,Wunderground v.1.15,2013-07-09 22:20:00,
2013-07-09 18:25:00,76.7,72.2,30.18,South,179,3.0,3.0,86,0.00,,,0.22,Wunderground v.1.15,2013-07-09 22:25:00,
2013-07-09 18:30:00,77.0,71.8,30.17,SSW,192,3.0,3.0,84,0.00,,,0.22,Wunderground v.1.15,2013-07-09 22:30:00,
2013-07-09 18:35:00,77.1,71.5,30.17,SSW,212,5.0,5.0,83,0.00,,,0.22,Wunderground v.1.15,2013-07-09 22:35:00,
2013-07-09 18:40:00,77.2,71.6,30.17,South,180,6.0,6.0,83,0.00,,,0.22,Wunderground v.1.15,2013-07-09 22:40:00,
2013-07-09 18:45:00,77.1,71.9,30.18,SW,214,6.0,8.0,84,0.00,,,0.22,Wunderground v.1.15,2013-07-09 22:45:00,
2013-07-09 18:55:00,76.6,71.7,30.17,SW,221,7.0,7.0,85,0.00,,,0.22,Wunderground v.1.15,2013-07-09 22:55:00,
2013-07-09 19:00:00,76.4,71.6,30.16,SSW,195,6.0,7.0,85,0.00,,,0.22,Wunderground v.1.15,2013-07-09 23:00:00,
2013-07-09 19:05:00,76.5,71.7,30.16,SSE,162,6.0,13.0,85,0.00,,,0.22,Wunderground v.1.15,2013-07-09 23:05:00,
2013-07-09 19:10:00,76.8,71.9,30.16,SSW,198,7.0,7.0,85,0.00,,,0.22,Wunderground v.1.15,2013-07-09 23:10:00,
2013-07-09 19:15:00,77.2,72.3,30.16,South,182,5.0,13.0,85,0.00,,,0.22,Wunderground v.1.15,2013-07-09 23:15:00,
2013-07-09 19:25:00,77.5,72.3,30.17,SSW,212,5.0,13.0,84,0.00,,,0.22,Wunderground v.1.15,2013-07-09 23:25:00,
2013-07-09 19:30:00,77.6,72.4,30.17,SSW,195,5.0,13.0,84,0.00,,,0.22,Wunderground v.1.15,2013-07-09 23:30:00,
2013-07-09 19:35:00,77.7,72.5,30.17,SSW,210,4.0,13.0,84,0.00,,,0.22,Wunderground v.1.15,2013-07-09 23:35:00,
2013-07-09 19:40:00,77.5,72.3,30.17,SSW,205,4.0,13.0,84,0.00,,,0.22,Wunderground v.1.15,2013-07-09 23:40:00,
2013-07-09 19:45:00,77.3,72.4,30.17,SSW,205,4.0,13.0,85,0.00,,,0.22,Wunderground v.1.15,2013-07-09 23:45:00,
2013-07-09 19:50:00,77.1,72.2,30.17,SSW,205,3.0,13.0,85,0.00,,,0.22,Wunderground v.1.15,2013-07-09 23:50:00,
2013-07-09 19:55:00,76.9,72.0,30.17,SSW,205,3.0,13.0,85,0.00,,,0.22,Wunderground v.1.15,2013-07-09 23:55:00,
2013-07-09 20:00:00,76.7,72.2,30.17,SSW,205,2.0,13.0,86,0.00,,,0.22,Wunderground v.1.15,2013-07-10 00:00:00,
2013-07-09 20:05:00,76.4,71.9,30.17,SSW,205,3.0,13.0,86,0.00,,,0.22,Wunderground v.1.15,2013-07-10 00:05:00,
2013-07-09 20:10:00,76.1,71.6,30.17,SSW,205,3.0,3.0,86,0.00,,,0.22,Wunderground v.1.15,2013-07-10 00:10:00,
2013-07-09 20:15:00,76.0,71.8,30.17,SSW,205,2.0,13.0,87,0.00,,,0.22,Wunderground v.1.15,2013-07-10 00:15:00,
2013-07-09 20:25:00,75.7,71.9,30.17,SSW,205,1.0,4.0,88,0.00,,,0.22,Wunderground v.1.15,2013-07-10 00:25:00,
2013-07-09 20:30:00,75.4,71.9,30.17,SSW,205,2.0,2.0,89,0.00,,,0.22,Wunderground v.1.15,2013-07-10 00:30:00,
2013-07-09 20:35:00,75.2,71.7,30.17,SSW,205,3.0,3.0,89,0.00,,,0.22,Wunderground v.1.15,2013-07-10 00:35:00,
2013-07-09 20:40:00,75.2,71.7,30.17,SSW,205,2.0,2.0,89,0.00,,,0.22,Wunderground v.1.15,2013-07-10 00:40:00,
2013-07-09 20:45:00,75.1,72.0,30.17,SSW,205,1.0,13.0,90,0.00,,,0.22,Wunderground v.1.15,2013-07-10 00:45:00,
2013-07-09 20:50:00,75.0,71.9,30.17,SSW,205,1.0,13.0,90,0.00,,,0.22,Wunderground v.1.15,2013-07-10 00:50:00,
2013-07-09 21:00:00,74.7,71.6,30.17,SSW,205,1.0,13.0,90,0.00,,,0.22,Wunderground v.1.15,2013-07-10 01:00:00,
2013-07-09 21:05:00,74.4,71.6,30.17,SSW,205,2.0,13.0,91,0.00,,,0.22,Wunderground v.1.15,2013-07-10 01:05:00,
2013-07-09 21:10:00,74.2,71.4,30.17,SSW,205,2.0,13.0,91,0.00,,,0.22,Wunderground v.1.15,2013-07-10 01:10:00,
2013-07-09 21:15:00,73.9,71.1,30.18,SSW,205,2.0,13.0,91,0.00,,,0.22,Wunderground v.1.15,2013-07-10 01:15:00,
2013-07-09 21:20:00,73.7,71.2,30.18,SSW,205,3.0,3.0,92,0.00,,,0.22,Wunderground v.1.15,2013-07-10 01:20:00,
2013-07-09 21:25:00,73.5,71.0,30.18,SSW,202,4.0,4.0,92,0.00,,,0.22,Wunderground v.1.15,2013-07-10 01:25:00,
2013-07-09 21:35:00,73.1,70.6,30.18,SSW,202,3.0,13.0,92,0.00,,,0.22,Wunderground v.1.15,2013-07-10 01:35:00,
2013-07-09 21:40:00,73.0,70.5,30.18,SSW,202,3.0,13.0,92,0.00,,,0.22,Wunderground v.1.15,2013-07-10 01:40:00,
2013-07-09 21:45:00,72.8,70.3,30.18,SSW,202,4.0,13.0,92,0.00,,,0.22,Wunderground v.1.15,2013-07-10 01:45:00,
2013-07-09 21:50:00,72.6,70.1,30.18,SSW,202,3.0,3.0,92,0.00,,,0.22,Wunderground v.1.15,2013-07-10 01:50:00,
2013-07-09 21:55:00,72.4,69.9,30.18,SSW,202,2.0,13.0,92,0.00,,,0.22,Wunderground v.1.15,2013-07-10 01:55:00,
2013-07-09 22:05:00,72.2,70.1,30.18,SSW,211,3.0,13.0,93,0.00,,,0.22,Wunderground v.1.15,2013-07-10 02:05:00,
2013-07-09 22:10:00,72.2,70.1,30.18,SSW,206,4.0,4.0,93,0.00,,,0.22,Wunderground v.1.15,2013-07-10 02:10:00,
2013-07-09 22:15:00,72.2,70.1,30.18,SSW,207,5.0,5.0,93,0.00,,,0.22,Wunderground v.1.15,2013-07-10 02:15:00,
2013-07-09 22:20:00,72.1,70.0,30.18,SSW,207,4.0,4.0,93,0.00,,,0.22,Wunderground v.1.15,2013-07-10 02:20:00,
2013-07-09 22:25:00,72.0,69.5,30.18,SSW,207,3.0,13.0,92,0.00,,,0.22,Wunderground v.1.15,2013-07-10 02:25:00,
2013-07-09 22:30:00,71.8,69.7,30.17,SSW,207,2.0,13.0,93,0.00,,,0.22,Wunderground v.1.15,2013-07-10 02:30:00,
2013-07-09 22:40:00,71.8,69.7,30.17,SSW,207,4.0,13.0,93,0.00,,,0.22,Wunderground v.1.15,2013-07-10 02:40:00,
2013-07-09 22:45:00,72.0,69.5,30.17,SSW,209,4.0,13.0,92,0.00,,,0.22,Wunderground v.1.15,2013-07-10 02:45:00,
2013-07-09 22:50:00,72.1,69.6,30.17,SW,214,5.0,13.0,92,0.00,,,0.22,Wunderground v.1.15,2013-07-10 02:50:00,
2013-07-09 22:55:00,72.1,69.6,30.17,SSW,192,4.0,13.0,92,0.00,,,0.22,Wunderground v.1.15,2013-07-10 02:55:00,
2013-07-09 23:00:00,72.2,69.7,30.17,SW,215,5.0,5.0,92,0.00,,,0.22,Wunderground v.1.15,2013-07-10 03:00:00,
2013-07-09 23:10:00,72.2,69.7,30.17,SSW,204,4.0,13.0,92,0.00,,,0.22,Wunderground v.1.15,2013-07-10 03:10:00,
2013-07-09 23:15:00,72.2,70.1,30.17,SSW,207,4.0,13.0,93,0.00,,,0.22,Wunderground v.1.15,2013-07-10 03:15:00,
2013-07-09 23:20:00,72.3,70.2,30.17,SSW,202,5.0,5.0,93,0.00,,,0.22,Wunderground v.1.15,2013-07-10 03:20:00,
2013-07-09 23:25:00,72.3,70.2,30.17,SSW,205,4.0,7.0,93,0.00,,,0.22,Wunderground v.1.15,2013-07-10 03:25:00,
2013-07-09 23:30:00,72.3,70.2,30.17,SW,214,4.0,4.0,93,0.00,,,0.22,Wunderground v.1.15,2013-07-10 03:30:00,
2013-07-09 23:35:00,72.3,70.2,30.17,SSW,201,5.0,5.0,93,0.00,,,0.22,Wunderground v.1.15,2013-07-10 03:35:00,
2013-07-09 23:45:00,72.3,70.2,30.16,South,173,4.0,13.0,93,0.00,,,0.22,Wunderground v.1.15,2013-07-10 03:45:00,
2013-07-09 23:50:00,72.3,69.8,30.16,South,182,4.0,4.0,92,0.00,,,0.22,Wunderground v.1.15,2013-07-10 03:50:00,
2013-07-09 23:55:00,72.4,69.9,30.16,South,188,4.0,13.0,92,0.00,,,0.22,Wunderground v.1.15,2013-07-10 03:55:00,